User: anonymous   Login
Location: State Camp
(41.2367°N, 77.7828°W)
Time: 18:39:49
(UTC-04:00)
Language:

ADEOS Rocket - Orbit

View from above orbital plane
View from above orbital plane
View from above satellite
View from above satellite

Ground track
Ground track

The orbit data is extracted from the following two-line orbital elements,

1 24279U 96046C   16243.61328199 -.00000015  00000-0  29346-4 0  9999
2 24279  98.7092 218.0738 0299380 309.8569 181.1093 13.47056183985127
Epoch (UTC): 30 August 2016 14:43:07
Eccentricity: 0.0299380
inclination: 98.7092°
perigee height: 860 km
apogee height: 1306 km
right ascension of ascending node: 218.0738°
argument of perigee: 309.8569°
revolutions per day: 13.47056183
mean anomaly at epoch: 181.1093°
orbit number at epoch: 98512

The dashed part of the orbit path shows where the satellite is in the earth's shadow,  

DLR